TimePST,TemperatureF,Dew PointF,Humidity,Sea Level PressureIn,VisibilityMPH,Wind Direction,Wind SpeedMPH,Gust SpeedMPH,PrecipitationIn,Events,Conditions,WindDirDegrees,DateUTC
12:01 AM,55.4,55.4,100,30.13,3.0,West,3.5,-,N/A,,Overcast,280,2012-12-06 08:01:00
12:08 AM,55.4,55.4,100,30.13,2.5,West,3.5,-,N/A,,Overcast,280,2012-12-06 08:08:00
12:38 AM,55.4,55.4,100,30.13,3.0,WNW,3.5,-,N/A,,Overcast,300,2012-12-06 08:38:00
12:46 AM,55.4,55.4,100,30.12,4.0,Calm,Calm,-,N/A,,Overcast,0,2012-12-06 08:46:00
12:53 AM,55.0,55.0,100,30.12,4.0,Calm,Calm,-,N/A,,Overcast,0,2012-12-06 08:53:00
1:06 AM,55.4,55.4,100,30.12,4.0,Calm,Calm,-,N/A,,Overcast,0,2012-12-06 09:06:00
1:38 AM,55.4,55.4,100,30.11,4.0,Calm,Calm,-,N/A,,Overcast,0,2012-12-06 09:38:00
1:53 AM,55.0,55.0,100,30.11,3.0,Calm,Calm,-,N/A,,Overcast,0,2012-12-06 09:53:00
2:13 AM,55.4,55.4,100,30.11,2.0,South,3.5,-,N/A,,Overcast,190,2012-12-06 10:13:00
2:24 AM,55.4,55.4,100,30.11,1.8,Calm,Calm,-,N/A,,Overcast,0,2012-12-06 10:24:00
2:31 AM,55.4,55.4,100,30.11,2.0,Calm,Calm,-,N/A,,Overcast,0,2012-12-06 10:31:00
2:51 AM,55.4,55.4,100,30.11,3.0,Calm,Calm,-,N/A,,Overcast,0,2012-12-06 10:51:00
2:53 AM,55.0,55.0,100,30.11,3.0,Calm,Calm,-,N/A,,Overcast,0,2012-12-06 10:53:00
3:40 AM,55.4,55.4,100,30.11,2.5,West,3.5,-,N/A,,Overcast,280,2012-12-06 11:40:00
3:53 AM,55.0,55.0,100,30.10,3.0,Calm,Calm,-,N/A,,Overcast,0,2012-12-06 11:53:00
4:53 AM,55.9,54.0,93,30.09,4.0,Calm,Calm,-,N/A,,Overcast,0,2012-12-06 12:53:00
5:41 AM,55.4,53.6,94,30.09,6.0,Calm,Calm,-,N/A,,Overcast,0,2012-12-06 13:41:00
5:53 AM,55.9,54.0,93,30.09,6.0,Calm,Calm,-,N/A,,Overcast,0,2012-12-06 13:53:00
6:35 AM,55.4,55.4,100,30.10,5.0,Calm,Calm,-,N/A,,Overcast,0,2012-12-06 14:35:00
6:53 AM,55.9,55.0,97,30.10,5.0,Calm,Calm,-,N/A,,Overcast,0,2012-12-06 14:53:00
7:53 AM,55.0,53.1,93,30.11,8.0,SSW,3.5,-,N/A,,Overcast,210,2012-12-06 15:53:00
8:53 AM,55.0,53.1,93,30.12,10.0,SW,3.5,-,N/A,,Overcast,230,2012-12-06 16:53:00
9:21 AM,55.4,51.8,88,30.12,10.0,SW,5.8,-,N/A,,Overcast,230,2012-12-06 17:21:00
9:23 AM,55.4,51.8,88,30.12,10.0,WSW,8.1,-,N/A,,Overcast,240,2012-12-06 17:23:00
9:39 AM,55.4,51.8,88,30.13,10.0,SW,6.9,-,N/A,,Overcast,230,2012-12-06 17:39:00
9:53 AM,55.0,52.0,89,30.13,10.0,South,6.9,-,N/A,,Overcast,190,2012-12-06 17:53:00
10:53 AM,55.0,51.1,86,30.13,10.0,WSW,6.9,-,N/A,,Overcast,240,2012-12-06 18:53:00
11:28 AM,55.4,51.8,88,30.12,10.0,West,6.9,-,N/A,,Overcast,270,2012-12-06 19:28:00
11:53 AM,55.0,50.0,83,30.10,10.0,SW,4.6,-,N/A,,Overcast,220,2012-12-06 19:53:00
12:04 PM,55.4,50.0,82,30.10,10.0,SW,6.9,-,N/A,,Overcast,230,2012-12-06 20:04:00
12:53 PM,55.9,48.9,77,30.09,10.0,SSW,5.8,-,N/A,,Overcast,200,2012-12-06 20:53:00
1:53 PM,57.0,48.9,74,30.07,10.0,South,3.5,-,N/A,,Overcast,180,2012-12-06 21:53:00
2:53 PM,57.0,48.9,74,30.07,10.0,Calm,Calm,-,N/A,,Overcast,0,2012-12-06 22:53:00
3:53 PM,57.0,48.9,74,30.06,10.0,Calm,Calm,-,N/A,,Overcast,0,2012-12-06 23:53:00
4:53 PM,57.0,48.9,74,30.08,10.0,Calm,Calm,-,N/A,,Overcast,0,2012-12-07 00:53:00
5:53 PM,57.0,46.9,69,30.08,10.0,Calm,Calm,-,N/A,,Overcast,0,2012-12-07 01:53:00
6:53 PM,55.9,48.9,77,30.10,10.0,NNW,3.5,-,N/A,,Overcast,340,2012-12-07 02:53:00
7:53 PM,55.9,48.0,75,30.11,10.0,Calm,Calm,-,N/A,,Overcast,0,2012-12-07 03:53:00
8:14 PM,53.6,48.2,82,30.11,10.0,Calm,Calm,-,N/A,,Scattered Clouds,0,2012-12-07 04:14:00
8:53 PM,51.1,46.9,86,30.12,10.0,Calm,Calm,-,N/A,,Clear,0,2012-12-07 04:53:00
9:53 PM,50.0,46.9,89,30.12,9.0,Calm,Calm,-,N/A,,Clear,0,2012-12-07 05:53:00
10:53 PM,48.0,46.9,96,30.12,6.0,Calm,Calm,-,N/A,,Clear,0,2012-12-07 06:53:00
11:53 PM,46.0,44.1,93,30.12,8.0,NE,3.5,-,N/A,,Clear,40,2012-12-07 07:53:00